Weather History for Beckley, WV

Change the Weather History Date:

Thursday, January 2, 2014

  Actual Average Record
Temperature  
Mean Temperature 28 °F 31 °F  
Max Temperature 42 °F 39 °F 72 °F (1916)
Min Temperature 14 °F 23 °F -12 °F (1898)
Degree Days  
Heating Degree Days 37 34  
Month to date heating degree days 65 68  
Since 1 July heating degree days 2103 2161  
Cooling Degree Days 0 0  
Month to date cooling degree days 0 0  
Year to date cooling degree days 0 0  
Moisture  
Dew Point 24 °F    
Average Humidity 72    
Maximum Humidity 92    
Minimum Humidity 51    
Precipitation  
Precipitation 0.22 in 0.09 in 1.25 in (1937)
Month to date precipitation 0.22 0.18  
Year to date precipitation 0.22 0.18  
Snow  
Snow 1.50 in - - ()
Month to date snowfall 1.5  
Since 1 September snowfall 14.8  
Snow Depth 0.00 in    
Sea Level Pressure  
Sea Level Pressure 29.78 in    
Wind  
Wind Speed 9 mph (WNW)    
Max Wind Speed 24 mph    
Max Gust Speed 35 mph    
Visibility 5 miles    
Events Rain , Snow    
T = Trace of Precipitation, MM = Missing Value Source: NWS Daily Summary

Daily Weather History Graph

Daily Weather History Graph

Search for Another Location

Airport:

Trip Planner

Search our weather history database for the weather conditions in past years. The results will help you decide how hot, cold, wet, or windy it might be!

Date:

Astronomy

Jan. 02, 2014 Rise Set
Actual Time 7:40 AM EST 5:17 PM EST
Civil Twilight 7:10 AM EST 5:46 PM EST
Nautical Twilight 6:38 AM EST 6:19 PM EST
Astronomical Twilight 6:06 AM EST 6:51 PM EST
Moon 8:22 AM EST (1/2) 7:10 PM EST (1/2)
Length of Visible Light 10h 35m
Length of Day
9h 37m
New Moon, 2% of the Moon is Illuminated
Jan 2
New Moon
Jan 7
First Quarter
Jan 15
Full
Jan 24
Last Quarter
Jan 30
New

Hourly Weather History & Observations

Time (EST) Temp. Windchill Dew Point Humidity Pressure Visibility Wind Dir Wind Speed Gust Speed Precip Events Conditions
12:51 AM 30.0 °F 24.1 °F 17.1 °F 59% 30.06 in 10.0 mi SSE 5.8 mph - N/A   Clear
1:51 AM 28.9 °F 22.8 °F 18.0 °F 64% 30.04 in 10.0 mi SSE 5.8 mph - N/A   Clear
2:51 AM 34.0 °F 29.8 °F 18.0 °F 52% 30.00 in 10.0 mi SE 4.6 mph - N/A   Clear
3:51 AM 33.1 °F - 18.0 °F 54% 29.98 in 10.0 mi Calm Calm - N/A   Clear
4:51 AM 32.0 °F - 17.1 °F 54% 29.97 in 10.0 mi Calm Calm - N/A   Clear
5:51 AM 32.0 °F - 17.1 °F 54% 29.96 in 10.0 mi Calm Calm - N/A   Clear
6:51 AM 34.0 °F 29.8 °F 19.0 °F 54% 29.95 in 10.0 mi South 4.6 mph - N/A   Partly Cloudy
7:51 AM 37.9 °F 34.4 °F 24.1 °F 57% 29.91 in 10.0 mi South 4.6 mph - N/A   Overcast
8:51 AM 39.0 °F 35.7 °F 30.0 °F 70% 29.87 in 10.0 mi SSW 4.6 mph - 0.00 in   Overcast
9:51 AM 39.9 °F 35.8 °F 32.0 °F 73% 29.85 in 10.0 mi SW 5.8 mph - N/A   Overcast
10:09 AM 39.2 °F 34.2 °F 33.8 °F 81% 29.79 in 10.0 mi SSW 6.9 mph - N/A   Overcast
10:51 AM 39.9 °F 35.8 °F 33.1 °F 77% 29.82 in 10.0 mi SSW 5.8 mph - 0.00 in Rain Light Rain
11:16 AM 39.2 °F 34.2 °F 33.8 °F 81% 29.76 in 9.0 mi SSW 6.9 mph - 0.01 in Rain Light Rain
11:39 AM 42.8 °F 37.0 °F 37.4 °F 81% 29.72 in 10.0 mi SSW 10.4 mph 17.3 mph 0.02 in Rain Light Rain
11:51 AM 41.0 °F 34.3 °F 37.0 °F 86% 29.77 in 10.0 mi SSW 11.5 mph - 0.02 in Rain Light Rain
12:06 PM 42.8 °F 36.2 °F 37.4 °F 81% 29.70 in 10.0 mi SSW 12.7 mph - 0.01 in Rain Light Rain
12:15 PM 41.0 °F 35.2 °F 37.4 °F 87% 29.69 in 10.0 mi SSW 9.2 mph - 0.01 in Rain Light Rain
12:43 PM 41.0 °F 34.3 °F 37.4 °F 87% 29.67 in 10.0 mi SW 11.5 mph - 0.03 in Rain Light Rain
12:51 PM 42.1 °F 36.6 °F 37.9 °F 85% 29.72 in 10.0 mi SW 9.2 mph - 0.03 in Rain Light Rain
1:16 PM 42.8 °F 36.2 °F 37.4 °F 81% 29.65 in 10.0 mi SW 12.7 mph 18.4 mph 0.01 in Rain Light Rain
1:51 PM 42.1 °F 36.1 °F 37.9 °F 85% 29.68 in 10.0 mi SW 10.4 mph - 0.02 in Rain Light Rain
2:51 PM 39.9 °F 32.9 °F 37.0 °F 89% 29.66 in 7.0 mi West 11.5 mph - 0.03 in Rain Light Rain
3:01 PM 39.2 °F 32.5 °F 37.4 °F 93% 29.61 in 6.0 mi West 10.4 mph - 0.01 in Rain Light Rain
3:51 PM 37.9 °F 32.1 °F 35.1 °F 89% 29.68 in 6.0 mi West 8.1 mph - 0.04 in Rain Light Rain
4:51 PM 36.0 °F 28.5 °F 33.1 °F 89% 29.70 in 10.0 mi WNW 10.4 mph - 0.04 in Rain Light Rain
5:34 PM 33.8 °F 25.3 °F 30.2 °F 87% 29.65 in 2.5 mi WNW 11.5 mph 18.4 mph 0.00 in Snow Light Snow
5:51 PM 33.1 °F 26.1 °F 30.0 °F 89% 29.73 in 3.0 mi WNW 8.1 mph - 0.00 in Snow Light Snow
6:14 PM 32.0 °F 23.0 °F 28.4 °F 87% 29.66 in 5.0 mi WNW 11.5 mph - 0.00 in Snow Light Snow
6:23 PM 32.0 °F 23.0 °F 28.4 °F 87% 29.66 in 1.8 mi WNW 11.5 mph - 0.00 in Snow Light Snow
6:30 PM 32.0 °F 24.2 °F 28.4 °F 87% 29.66 in 1.0 mi NW 9.2 mph - 0.01 in Snow Light Snow
6:51 PM 30.9 °F 22.2 °F 28.9 °F 92% 29.74 in 0.8 mi NW 10.4 mph - 0.02 in Snow Light Snow
7:01 PM 30.2 °F 21.3 °F 28.4 °F 93% 29.68 in 1.0 mi NW 10.4 mph - 0.00 in Snow Light Snow
7:15 PM 30.2 °F 20.8 °F 26.6 °F 86% 29.68 in 2.5 mi NW 11.5 mph 17.3 mph 0.01 in Snow Light Snow
7:17 PM 30.2 °F 21.9 °F 26.6 °F 86% 29.68 in 4.0 mi WNW 9.2 mph 17.3 mph 0.01 in Snow Light Snow
7:23 PM 30.2 °F 21.3 °F 26.6 °F 86% 29.67 in 6.0 mi WNW 10.4 mph - 0.01 in Snow Light Snow
7:37 PM 30.2 °F 22.6 °F 26.6 °F 86% 29.68 in 2.5 mi WNW 8.1 mph - 0.01 in Snow Light Snow
7:46 PM 30.2 °F 20.8 °F 26.6 °F 86% 29.68 in 1.2 mi NW 11.5 mph - 0.02 in Snow Light Snow
7:51 PM 30.0 °F 17.9 °F 26.1 °F 85% 29.75 in 1.5 mi NW 18.4 mph 25.3 mph 0.02 in Snow Light Snow
8:00 PM 28.4 °F 15.8 °F 26.6 °F 93% 29.69 in 3.0 mi NW 18.4 mph 26.5 mph 0.00 in Snow Light Snow
8:11 PM 28.4 °F 15.8 °F 24.8 °F 86% 29.69 in 2.5 mi NW 18.4 mph 28.8 mph 0.00 in Snow Light Snow
8:19 PM 28.4 °F 15.4 °F 24.8 °F 86% 29.69 in 1.8 mi NW 19.6 mph 29.9 mph 0.00 in Snow Light Snow
8:38 PM 26.6 °F 14.3 °F 21.2 °F 80% 29.71 in 2.0 mi NW 16.1 mph 31.1 mph 0.00 in Snow Light Snow
8:51 PM 25.0 °F 10.9 °F 19.0 °F 78% 29.79 in 2.5 mi NW 19.6 mph 33.4 mph 0.00 in Snow Light Snow
8:58 PM 24.8 °F 9.3 °F 19.4 °F 80% 29.72 in 2.5 mi NW 24.2 mph 32.2 mph 0.00 in Snow Light Snow
9:13 PM 23.0 °F 8.7 °F 17.6 °F 80% 29.74 in 2.0 mi NW 18.4 mph 28.8 mph 0.00 in Snow Light Snow
9:28 PM 23.0 °F 10.1 °F 17.6 °F 80% 29.74 in 1.5 mi NW 15.0 mph 28.8 mph 0.00 in Snow Light Snow
9:51 PM 21.9 °F 7.8 °F 17.1 °F 82% 29.84 in 1.5 mi NW 17.3 mph 26.5 mph 0.00 in Snow Light Snow
10:06 PM 21.2 °F 7.3 °F 15.8 °F 80% 29.76 in 3.0 mi WNW 16.1 mph 26.5 mph 0.00 in Snow Light Snow
10:21 PM 19.4 °F 2.8 °F 15.8 °F 86% 29.78 in 2.5 mi WNW 21.9 mph 34.5 mph 0.00 in Snow Light Snow
10:28 PM 19.4 °F 4.1 °F 12.2 °F 74% 29.78 in 3.0 mi NW 18.4 mph 34.5 mph 0.00 in Snow Light Snow
10:37 PM 19.4 °F 6.6 °F 12.2 °F 74% 29.79 in 2.5 mi NW 12.7 mph 29.9 mph 0.00 in Snow Light Snow
10:49 PM 17.6 °F 2.7 °F 12.2 °F 79% 29.80 in 1.8 mi NW 16.1 mph 26.5 mph 0.00 in Snow Light Snow
10:51 PM 18.0 °F 1.7 °F 12.0 °F 78% 29.89 in 2.0 mi NW 19.6 mph 26.5 mph 0.00 in Snow Light Snow
11:00 PM 17.6 °F 3.2 °F 12.2 °F 79% 29.81 in 1.8 mi NNW 15.0 mph 28.8 mph 0.00 in Snow Light Snow
11:09 PM 17.6 °F 3.2 °F 10.4 °F 73% 29.82 in 2.0 mi NNW 15.0 mph 25.3 mph 0.00 in Snow Light Snow
11:23 PM 15.8 °F 2.7 °F 10.4 °F 79% 29.84 in 1.0 mi NW 11.5 mph 26.5 mph 0.00 in Snow Light Snow
11:27 PM 15.8 °F 0.3 °F 10.4 °F 79% 29.84 in 0.8 mi NW 16.1 mph - 0.00 in Snow Light Snow
11:30 PM 15.8 °F 0.3 °F 10.4 °F 79% 29.84 in 1.0 mi NW 16.1 mph 23.0 mph 0.00 in Snow Light Snow
11:51 PM 14.0 °F -2.5 °F 8.1 °F 77% 29.95 in 2.0 mi NW 17.3 mph 26.5 mph 0.00 in Snow Light Snow
11:58 PM 14.0 °F -2.0 °F 8.6 °F 79% 29.86 in 1.8 mi NW 16.1 mph 25.3 mph 0.00 in Snow Light Snow